PSLKS SBLO-SBFI

Flight info

Callsign PSLKS
Flight time 0h 42m
Altitude 36000
Route CARMO DCT ESKUM DCT ILMIS DCT KUDUX
Aircraft C700/M-SBDGHM1RWXY/LB2

Departure

Time 2026-04-25 00:32
Airport Governor José Richa Airport (SBLO)

Arrival

Time 2026-04-25 01:14
Airport Cataratas International Airport (SBFI)
Time Latitude Longitude Altitude Speed Heading
2026-04-25 00:16 -23.32963 -51.13688 1873 ft 0 kts 20°
2026-04-25 00:27 -23.32959 -51.13688 1873 ft 2 kts 350°
2026-04-25 00:27 -23.32966 -51.13705 1873 ft 4 kts 220°
2026-04-25 00:28 -23.32980 -51.13714 1873 ft 0 kts 207°
2026-04-25 00:28 -23.32990 -51.13718 1873 ft 8 kts 195°
2026-04-25 00:29 -23.33035 -51.13700 1873 ft 0 kts 159°
2026-04-25 00:30 -23.33051 -51.13697 1873 ft 7 kts 177°
2026-04-25 00:30 -23.33112 -51.13711 1873 ft 8 kts 164°
2026-04-25 00:31 -23.33139 -51.13666 1873 ft 0 kts 110°
2026-04-25 00:31 -23.33148 -51.13640 1874 ft 27 kts 110°
2026-04-25 00:31 -23.33332 -51.13085 1873 ft 126 kts 110°
2026-04-25 00:32 -23.33697 -51.11961 2210 ft 184 kts 109°
2026-04-25 00:32 -23.34165 -51.10581 3327 ft 204 kts 112°
2026-04-25 00:32 -23.34884 -51.09225 4573 ft 216 kts 139°
2026-04-25 00:32 -23.35809 -51.08710 5372 ft 231 kts 167°
2026-04-25 00:33 -23.37965 -51.09246 6796 ft 266 kts 216°
2026-04-25 00:33 -23.39233 -51.10816 7964 ft 284 kts 235°
2026-04-25 00:33 -23.40304 -51.12643 9413 ft 289 kts 238°
2026-04-25 00:33 -23.41404 -51.14521 10689 ft 303 kts 237°
2026-04-25 00:34 -23.42650 -51.16494 11597 ft 327 kts 236°
2026-04-25 00:34 -23.43964 -51.18537 13071 ft 330 kts 237°
2026-04-25 00:34 -23.45269 -51.20620 14460 ft 335 kts 238°
2026-04-25 00:34 -23.46579 -51.22736 15836 ft 338 kts 238°
2026-04-25 00:35 -23.47906 -51.24863 17129 ft 342 kts 237°
2026-04-25 00:35 -23.49258 -51.27016 18305 ft 348 kts 237°
2026-04-25 00:35 -23.50633 -51.29216 19378 ft 354 kts 237°
2026-04-25 00:35 -23.52029 -51.31454 20470 ft 359 kts 237°
2026-04-25 00:36 -23.53445 -51.33721 21515 ft 364 kts 238°
2026-04-25 00:36 -23.54872 -51.36009 22519 ft 368 kts 238°
2026-04-25 00:36 -23.55830 -51.37545 23143 ft 371 kts 238°
2026-04-25 00:36 -23.57289 -51.39885 24091 ft 375 kts 238°
2026-04-25 00:37 -23.59264 -51.43054 25256 ft 381 kts 238°
2026-04-25 00:37 -23.60256 -51.44647 25767 ft 385 kts 238°
2026-04-25 00:37 -23.61769 -51.47075 26556 ft 390 kts 238°
2026-04-25 00:37 -23.63300 -51.49537 27305 ft 395 kts 238°
2026-04-25 00:38 -23.64853 -51.52036 28032 ft 400 kts 238°
2026-04-25 00:38 -23.66424 -51.54563 28736 ft 405 kts 238°
2026-04-25 00:38 -23.68016 -51.57124 29396 ft 410 kts 239°
2026-04-25 00:38 -23.69627 -51.59717 30062 ft 415 kts 239°
2026-04-25 00:39 -23.71255 -51.62342 30704 ft 420 kts 239°
2026-04-25 00:39 -23.72899 -51.64991 31409 ft 423 kts 239°
2026-04-25 00:39 -23.74552 -51.67655 32095 ft 425 kts 238°
2026-04-25 00:39 -23.76211 -51.70331 32751 ft 426 kts 238°
2026-04-25 00:40 -23.77877 -51.73022 33360 ft 428 kts 238°
2026-04-25 00:40 -23.79560 -51.75675 34226 ft 423 kts 236°
2026-04-25 00:40 -23.81330 -51.78208 35063 ft 418 kts 235°
2026-04-25 00:40 -23.83088 -51.80729 35847 ft 414 kts 235°
2026-04-25 00:41 -23.84840 -51.83267 36038 ft 426 kts 236°
2026-04-25 00:41 -23.86655 -51.85898 36057 ft 441 kts 235°
2026-04-25 00:41 -23.88536 -51.88609 36065 ft 454 kts 235°
2026-04-25 00:41 -23.90436 -51.91343 36068 ft 460 kts 235°
2026-04-25 00:42 -23.94268 -51.96882 36059 ft 455 kts 235°
2026-04-25 00:42 -23.98076 -52.02394 36057 ft 455 kts 235°
2026-04-25 00:43 -24.01906 -52.07940 36062 ft 458 kts 235°
2026-04-25 00:43 -24.05739 -52.13498 36060 ft 457 kts 235°
2026-04-25 00:44 -24.09556 -52.19038 36058 ft 454 kts 235°
2026-04-25 00:44 -24.13350 -52.24554 36055 ft 455 kts 236°
2026-04-25 00:45 -24.17172 -52.30115 36067 ft 458 kts 236°
2026-04-25 00:45 -24.20994 -52.35680 36061 ft 456 kts 236°
2026-04-25 00:46 -24.24788 -52.41220 36061 ft 453 kts 236°
2026-04-25 00:47 -24.30387 -52.49564 36063 ft 456 kts 236°
2026-04-25 00:47 -24.34158 -52.55149 36064 ft 454 kts 236°
2026-04-25 00:48 -24.37891 -52.60715 36057 ft 451 kts 236°
2026-04-25 00:48 -24.41614 -52.66256 36059 ft 452 kts 236°
2026-04-25 00:49 -24.45331 -52.71801 36064 ft 456 kts 237°
2026-04-25 00:49 -24.49084 -52.77400 36064 ft 454 kts 237°
2026-04-25 00:50 -24.52806 -52.82965 36061 ft 451 kts 237°
2026-04-25 00:50 -24.56525 -52.88531 36058 ft 452 kts 237°
2026-04-25 00:51 -24.60250 -52.94109 36066 ft 453 kts 237°
2026-04-25 00:51 -24.63971 -52.99692 36067 ft 453 kts 237°
2026-04-25 00:52 -24.67705 -53.05299 35884 ft 456 kts 237°
2026-04-25 00:52 -24.69566 -53.08094 35287 ft 450 kts 237°
2026-04-25 00:52 -24.71399 -53.10847 34694 ft 442 kts 237°
2026-04-25 00:52 -24.73203 -53.13562 34113 ft 438 kts 237°
2026-04-25 00:53 -24.75008 -53.16289 33531 ft 445 kts 238°
2026-04-25 00:53 -24.76850 -53.19069 32936 ft 453 kts 237°
2026-04-25 00:53 -24.78719 -53.21880 32328 ft 457 kts 237°
2026-04-25 00:53 -24.80595 -53.24704 31718 ft 459 kts 237°
2026-04-25 00:54 -24.82477 -53.27543 31108 ft 459 kts 237°
2026-04-25 00:54 -24.84361 -53.30391 30497 ft 461 kts 237°
2026-04-25 00:54 -24.86253 -53.33251 29877 ft 463 kts 237°
2026-04-25 00:54 -24.88156 -53.36130 29270 ft 466 kts 237°
2026-04-25 00:55 -24.90068 -53.39021 28646 ft 469 kts 237°
2026-04-25 00:55 -24.91990 -53.41928 28017 ft 469 kts 237°
2026-04-25 00:55 -24.93896 -53.44811 27395 ft 461 kts 237°
2026-04-25 00:55 -24.95767 -53.47644 26788 ft 453 kts 237°
2026-04-25 00:56 -24.97600 -53.50427 26192 ft 442 kts 237°
2026-04-25 00:56 -24.99362 -53.53099 25615 ft 421 kts 237°
2026-04-25 00:56 -25.01041 -53.55642 25073 ft 400 kts 237°
2026-04-25 00:56 -25.02641 -53.58073 24553 ft 382 kts 237°
2026-04-25 00:57 -25.04176 -53.60410 24057 ft 372 kts 237°
2026-04-25 00:57 -25.05686 -53.62710 23564 ft 370 kts 237°
2026-04-25 00:57 -25.07202 -53.65019 23077 ft 373 kts 237°
2026-04-25 00:57 -25.08732 -53.67347 22579 ft 375 kts 237°
2026-04-25 00:58 -25.10259 -53.69667 22081 ft 373 kts 237°
2026-04-25 00:58 -25.11773 -53.71974 21587 ft 369 kts 237°
2026-04-25 00:58 -25.13274 -53.74262 21098 ft 367 kts 237°
2026-04-25 00:58 -25.14763 -53.76533 20608 ft 364 kts 237°
2026-04-25 00:59 -25.16244 -53.78792 20115 ft 362 kts 237°
2026-04-25 00:59 -25.17716 -53.81040 19636 ft 361 kts 237°
2026-04-25 00:59 -25.18842 -53.83473 19101 ft 354 kts 253°
2026-04-25 00:59 -25.19442 -53.86051 18636 ft 350 kts 260°
2026-04-25 01:00 -25.19925 -53.88678 18171 ft 348 kts 260°
2026-04-25 01:00 -25.20517 -53.91276 17705 ft 348 kts 256°
2026-04-25 01:00 -25.21261 -53.93809 17247 ft 347 kts 254°
2026-04-25 01:00 -25.21993 -53.96346 16779 ft 345 kts 255°
2026-04-25 01:01 -25.22648 -53.98886 16320 ft 342 kts 256°
2026-04-25 01:01 -25.23292 -54.01407 15863 ft 340 kts 256°
2026-04-25 01:01 -25.23961 -54.03901 15410 ft 337 kts 255°
2026-04-25 01:01 -25.24630 -54.06371 14961 ft 335 kts 255°
2026-04-25 01:02 -25.25283 -54.08832 14519 ft 333 kts 255°
2026-04-25 01:02 -25.25927 -54.11281 14070 ft 331 kts 255°
2026-04-25 01:02 -25.26564 -54.13679 13636 ft 319 kts 255°
2026-04-25 01:02 -25.27176 -54.15979 13220 ft 306 kts 255°
2026-04-25 01:03 -25.27764 -54.18201 12809 ft 296 kts 255°
2026-04-25 01:03 -25.28333 -54.20351 12423 ft 288 kts 255°
2026-04-25 01:03 -25.28890 -54.22461 12038 ft 285 kts 255°
2026-04-25 01:03 -25.29446 -54.24568 11667 ft 287 kts 255°
2026-04-25 01:04 -25.30007 -54.26694 11281 ft 289 kts 255°
2026-04-25 01:04 -25.30574 -54.28835 10893 ft 291 kts 255°
2026-04-25 01:04 -25.31139 -54.30981 10508 ft 291 kts 255°
2026-04-25 01:04 -25.31705 -54.33126 10119 ft 290 kts 255°
2026-04-25 01:05 -25.32266 -54.35256 9737 ft 289 kts 255°
2026-04-25 01:05 -25.32827 -54.37390 9345 ft 289 kts 255°
2026-04-25 01:05 -25.33388 -54.39522 8967 ft 289 kts 256°
2026-04-25 01:05 -25.33949 -54.41653 8564 ft 288 kts 256°
2026-04-25 01:06 -25.34507 -54.43780 8199 ft 288 kts 256°
2026-04-25 01:06 -25.35052 -54.45851 7834 ft 281 kts 255°
2026-04-25 01:06 -25.35597 -54.47920 7479 ft 273 kts 256°
2026-04-25 01:06 -25.36117 -54.49907 7135 ft 264 kts 256°
2026-04-25 01:07 -25.36608 -54.51780 6818 ft 250 kts 256°
2026-04-25 01:07 -25.37080 -54.53579 6525 ft 238 kts 255°
2026-04-25 01:07 -25.37530 -54.55297 6244 ft 228 kts 256°
2026-04-25 01:07 -25.37962 -54.56944 5970 ft 219 kts 255°
2026-04-25 01:08 -25.38568 -54.58478 5687 ft 217 kts 238°
2026-04-25 01:08 -25.39573 -54.59722 5410 ft 219 kts 221°
2026-04-25 01:08 -25.40891 -54.60581 5132 ft 223 kts 203°
2026-04-25 01:08 -25.42355 -54.61170 4836 ft 224 kts 201°
2026-04-25 01:09 -25.43811 -54.61776 4535 ft 222 kts 201°
2026-04-25 01:09 -25.45251 -54.62375 4240 ft 220 kts 200°
2026-04-25 01:09 -25.46685 -54.62639 3975 ft 203 kts 180°
2026-04-25 01:09 -25.48040 -54.62404 3694 ft 193 kts 163°
2026-04-25 01:10 -25.49216 -54.61753 3473 ft 185 kts 146°
2026-04-25 01:10 -25.50166 -54.60789 3249 ft 190 kts 133°
2026-04-25 01:10 -25.51043 -54.59710 3096 ft 177 kts 132°
2026-04-25 01:10 -25.51825 -54.58712 2791 ft 162 kts 130°
2026-04-25 01:11 -25.52501 -54.57833 2547 ft 139 kts 131°
2026-04-25 01:11 -25.53109 -54.57058 2366 ft 130 kts 130°
2026-04-25 01:11 -25.53697 -54.56300 2216 ft 130 kts 130°
2026-04-25 01:11 -25.54283 -54.55543 2055 ft 129 kts 128°
2026-04-25 01:12 -25.54864 -54.54791 1880 ft 129 kts 129°
2026-04-25 01:12 -25.55457 -54.54042 1711 ft 130 kts 129°
2026-04-25 01:12 -25.56043 -54.53273 1536 ft 131 kts 129°
2026-04-25 01:12 -25.56642 -54.52517 1363 ft 130 kts 129°
2026-04-25 01:13 -25.57222 -54.51757 1190 ft 129 kts 129°
2026-04-25 01:13 -25.57809 -54.51007 1020 ft 129 kts 129°
2026-04-25 01:13 -25.58378 -54.50266 867 ft 123 kts 130°
2026-04-25 01:13 -25.58913 -54.49583 801 ft 110 kts 130°
2026-04-25 01:14 -25.59309 -54.49076 794 ft 62 kts 131°
2026-04-25 01:14 -25.59455 -54.48899 796 ft 13 kts 146°
2026-04-25 01:14 -25.59528 -54.48927 794 ft 9 kts 226°
2026-04-25 01:14 -25.59542 -54.48955 793 ft 6 kts 269°
2026-04-25 01:15 -25.59513 -54.48993 793 ft 8 kts 308°
2026-04-25 01:15 -25.59526 -54.49034 793 ft 7 kts 221°
2026-04-25 01:15 -25.59532 -54.49039 793 ft 0 kts 219°